Torna al catalogo

QIANFAN-109

AttivoComunicazioniPO
NORAD 68636·PAYLOAD·🇨🇳 China

Lanciato Apr 7, 2026 da Wenchang Space Launch Site

Loading…

Prossimi Passaggi (prossime 24 ore)

TLE

AggiornatoSource: Space-Track

Epoca: Sep 14, 2026, 21:45 UTC

1 68636U 26075A   26257.90649454  .00000060  00000-0  74463-4 0  9996
2 68636  88.9873 311.8591 0002210  84.8843 275.2561 13.51020467 21901

Traccia QIANFAN-109 in tempo reale con AllMySat

Download on the App Store